Погода Ивано-Франковск

Погода Ивано-Франковск : погода сейчас, прогноз погоды и архив. Всё, что Вы хотите узнать о погоде Ивано-Франковск!

Поиск расширенной информации на нашем сайте:

Другие новости

Новости СМИ2

Главная страница сайта

Новости сайта

03.07.2017

Напоминаем, что на нашем специализированном сайте Метеоцентр.Азия вы можете получить высокодетализированные автоматические прогнозы погоды по пунктам России, СНГ и мира в авиационном формате (включающие направление и скорость ветра, видимость, явления погоды, количество и форму облачности, нижнюю и верхнюю границу облачности).

Рекомендуем: Качественный синускан в наличии stimul20.ru.

Погода Ивано-Франковск - сегодня

Время (UTC), дата Ветер
(°,м/с) 
Видим.   Явления Облачность Т
(°С)
Тd
(°С)
f(%) Тe
(°С)
Pmin
(гПа)
dP
(гПа)
Po
(мм)
O2
(г/м3)
Тmin Tmax R s Состояние
почвы
18 12.12.17 230 (ЮЗ) 12{18}  10 км    9/9 1200 м 
[Sc]
+14 +5.9 58 +12  1009.3  1.8  732  280    +15.7       
06 13.12.17 290 (З) 10 км  слаб. ливневой дождь  10/10 240 м кучево-дожд. 
[Cb cap]
+2.5 +2 96 +1  1018.2  2.1  738  294  +2.5       
12 13.12.17 300 (СЗ) 10 км  слаб. ливневой дождь со снегом  10/10 240 м кучево-дожд. 
[Cb cap]
+1.6 +1.1 96 +1  1018.6  -0.7  738  295         
18 13.12.17 тихо ()   5000 м  дымка{ливн. осадки}  10/10 900 м кучево-дожд. 
[Cb cap]
+0.9 +0.4 96 +1  1016.2  -1.3  736  296    +2.5     
21 13.12.17 тихо ()   0200 м  туман  ?/?  
-0.1 -0.4 98 -0  1014.4  -1.9  735  296           
03 14.12.17 150 (ЮВ) 6000 м  дымка  10/10 120 м 
[St]
+0.6 +0.3 98 -1  1009.8  -2.3  731  294           
06 14.12.17 130 (ЮВ) 2500 м  туман  ?/?  
-0.2 -0.5 98 -1  1007.7  -2.1  730  294  -0.3         
15 14.12.17 250 (З) 10 км    9/6 1200 м средняя 
[Sc|Ac trans]
+5 +1 75 +3  1003.8  0.8  728  288           
18 14.12.17 240 (ЮЗ) 20000 м    9/6 1200 м средняя 
[Sc|Ac trans]
+6.2 -0.2 64 +5  1004.5  0.8  728  287    +7.3       
21 14.12.17 190 (Ю) 20000 м    8/0 средняя 
[Ac trans]
+4.6 -0.7 68 +3  1004.9  0.2  728  289           
00 15.12.17 330 (СЗ) 20000 м    6/0 средняя 
[Ac trans]
+1.8 -1.6 78 +3  1005.5  0.2  728  292           
03 15.12.17 310 (СЗ) 20000 м    9/5 1200 м средняя 
[Sc|Ac trans]
+0.5 -0.9 90 -1  1005  -0.6  728  293           
06 15.12.17 тихо ()   20000 м    8/8 1380 м 
[Sc]
+0 -0.6 96 1004.6  -0.5  728  293  -0.2         
09 15.12.17 тихо ()   10 км    9/9 1380 м 
[Sc]
+2.2 +1.4 94 +2  1003.7  -0.5  727  290           
12 15.12.17 130 (ЮВ) 50000 м    9/9 900 м кучево-дожд. 
[Cb cap]
+8.1 +3.3 72 +7  1001.7  -1.3  726  284           
15 15.12.17 170 (Ю) 20000 м  {ливн. осадки}  9/9 900 м кучево-дожд. 
[Cb cap]
+7.9 +3.3 73 +7  1002  0.3  727  284           
18 15.12.17 160 (Ю) 20000 м  {ливн. осадки}  6/6 1380 м 
[Sc]
+6.4 +3.1 79 +5  1001.7  -0.5  726  285    +9.4  0.0     
21 15.12.17 тихо ()   20000 м    6/6 1380 м 
[Sc]
+1.6 +0.8 94 +2  1001.8  -0.5  726  291           
00 16.12.17 320 (СЗ) 10 км  слаб. ливневой дождь  10/10 900 м кучево-дожд. 
[Cb cap]
+1 +0.5 96 +2  1001.1  -0.7  725  291      0.0     
03 16.12.17 тихо ()   4500 м  слаб. ливневой дождь  10/10 400 м кучево-дожд. 
[Cb cap]
+3.9 +3.7 99 +4  999.2  -1.5  724  287           
06 16.12.17 280 (З) 10 км  слаб. ливневой дождь  10/10 270 м кучево-дожд. 
[Cb cap]
+1.7 +1.4 98 -1  998.2  -1.2  723  289  +0.3       
09 16.12.17 290 (З) 10 км  слаб. ливневой дождь со снегом  10/10 240 м кучево-дожд. 
[Cb cap]
+1.7 +1.4 98 999.8  1.5  724  290           
12 16.12.17 290 (З) 10 км  слаб. ливневой дождь со снегом  10/10 270 м кучево-дожд. 
[Cb cap]
+1.7 +1.4 98 1001.2  1.4  725  290         
15 16.12.17 290 (З) 10 км  слаб. ливневой дождь со снегом  10/10 270 м кучево-дожд. 
[Cb cap]
+1.2 +0.9 98 -1  1005.5  4.1  728  292           
18 16.12.17 270 (З) 10 км  слаб. ливневой дождь со снегом  10/10 330 м кучево-дожд. 
[Cb cap]
+1.2 +0.9 98 -1  1009.5  3.8  731  293    +1.9     
Время (UTC), дата Ветер
(°,м/с) 
Видим.   Явления Облачность Т
(°С)
Тd
(°С)
f(%) Тe
(°С)
Pmin
(гПа)
dP
(гПа)
Po
(мм)
O2
(г/м3)
Тmin Tmax R s Состояние
почвы

Для получения пояснительной информации подведите курсор к названию столбца.

ПОГОДА Ивано-Франковск - архив

Всё, что Вы хотите узнать о погоде Ивано-Франковск - удобно и подробно!

Выберите нужную дату (начиная с 1 января 2015* года) и нажмите кнопку "Найти".
Будут отображены архивные сводки погоды по пункту Ивано-Франковск, начиная с указанной даты.


Отображать данные в формате CSV (для использования в таблицах Excel)


Внимание! Наш архив погоды предназначен исключительно для личного некоммерческого использования в познавательных целях. Если Вам необходимы официальные справки о состоянии погоды (для производственных, юридических, коммерческих и т.п. целей), обращайтесь в органы Росгидромета.

*Примечание: данная дата относится к архиву по метеостанциям СССР (Россия, СНГ, Балтия).
Архив по метеостанциям Зарубежной Европы и Азии (кроме Китая) хранится 10 дней, по другим регионам земного шара (Китай, Африка, Америка, Австралия, Океания) - 1 день.

Ивано-Франковск - район местоположения метеостанции


Название, широта, долгота, высота метеостанции:
Ивано-Франковск 49°ш. 24.4°д. 280 м над ур. моря [Украина]

Дополнительная информация

В oтличие oт бoльшинства пoгoдных сайтoв мы публикуем пoдрoбную метеoинфoрмацию в детальнoм прoфессиoнальнoм фoрмате.

Характеристики температуры и влажнoсти вoздуха измеряются на высoте 2 м в тени вдали oт зданий и деревьев.
Скoрoсть ветра измеряется на высoте 10 м (на урoвне рoста челoвека скoрoсть ветра ниже в 1.5-2 раза). Если метеoстанция нахoдится в гoрoде или в лесу, тo скoрoсть ветра занижена на 2-4 м/с пo сравнению с oткрытым местoм. Скoрoсть ветра над акватoриями крупных рек и oзёр, а также на вершинах хoлмoв на 2-5 м/с выше, чем в oбычных услoвиях.
Атмoсфернoе давление в разных тoчках местнoсти мoжет значительнo oтличаться oт давления на метеoстанции, в зависимoсти oт услoвий рельефа (при пoдъёме на 10 м давление пoнижается примернo на 1 мм рт.ст.).